RH
54 57 60 61 63 70 67 73 75 73 79 78 77 73 72 71 70 72 72 71 71 72 71 71 73 75 58 57 60 60 60 62 58 46 54 53 63 62 56 57 50 49 43
58 66 65 66 67 65 71 72 76 79 75 76 74 74 73 72 72 73 70 66 71 71 70 72 68 57 70 68 53 69 65 69 67 73 65 55 65 68 66 66 52 41 48
64 65 65 66 66 67 70 71 76 78 76 68 73 75 74 72 72 73 72 70 70 70 67 69 69 72 71 61 63 57 54 56 60 62 62 56 59 60 64 61 60 62 48
63 63 68 67 65 65 71 78 78 80 76 71 70 72 72 71 68 68 68 69 66 63 65 66 68 69 69 69 62 72 68 60 60 54 52 53 56 60 62 58 54 49 49
71 66 73 74 77 79 83 84 86 84 79 72 73 72 71 66 56 68 66 65 66 64 62 63 60 63 79 75 59 70 74 59 49 48 48 52 52 54 62 59 57 53 53
74 71 80 89 90 88 86 85 86 81 78 76 75 75 74 57 77 82 71 63 67 68 66 66 62 64 69 85 82 74 74 67 64 48 50 56 69 64 60 59 57 55 53
85 91 94 94 94 96 96 96 93 91 86 79 75 75 75 72 87 87 85 58 59 62 65 65 59 44 66 63 79 70 64 78 82 73 72 66 71 70 77 74 69 66 57
90 90 91 95 97 99 97 96 96 87 91 90 76 76 76 71 91 91 85 62 64 65 64 63 64 65 66 67 64 60 54 55 52 50 64 66 67 69 76 79 77 75 59
91 87 93 90 95 90 89 86 83 88 87 97 92 80 78 73 90 89 82 64 64 69 68 66 62 59 77 84 69 62 60 55 54 68 77 80 82 82 74 57 58 56 49
93 94 95 96 92 86 83 84 80 84 85 94 97 94 84 85 92 90 80 66 66 61 65 65 78 67 88 86 71 64 62 53 52 53 51 58 71 60 80 66 53 55 51
94 96 95 90 91 90 88 82 85 89 95 97 94 98 94 85 87 94 90 66 56 56 46 38 38 71 92 92 88 64 62 61 57 54 49 45 48 47 44 51 60 56 52
93 89 86 85 85 93 96 95 93 97 97 98 99 99 99 97 93 96 94 87 81 60 52 38 44 76 91 94 82 80 88 81 46 47 48 48 46 44 43 55 73 68 55
75 79 79 82 81 84 96 98 99 98 99 99 99 100 100 98 90 95 96 95 94 73 57 58 69 79 88 82 89 84 84 50 47 48 48 48 48 46 58 57 68 76 75
78 80 84 86 90 87 86 88 98 99 99 100 99 98 99 98 96 88 72 78 94 85 79 65 64 67 79 69 68 63 50 48 50 48 47 46 50 52 46 46 45 44 46
81 90 95 93 99 98 99 97 94 93 97 97 97 97 94 86 79 86 80 72 70 75 79 71 66 60 54 53 53 53 52 53 54 53 52 50 48 51 52 46 48 46 47
84 98 99 98 99 99 86 76 94 97 99 100 99 98 96 92 90 91 93 100 100 98 79 70 69 68 63 58 57 56 54 62 61 62 59 55 51 49 49 50 51 49 46
80 97 98 98 97 99 99 98 81 86 94 96 96 94 94 96 90 93 99 97 94 92 71 76 79 75 75 77 76 83 79 81 88 72 68 63 60 57 60 53 48 50 48
77 95 77 81 71 75 85 89 92 91 95 91 98 89 97 99 100 98 94 88 70 75 72 84 84 90 89 91 93 93 90 88 80 80 88 82 90 87 82 69 62 56 54
60 60 59 60 64 71 73 76 89 90 91 94 92 91 93 100 98 94 85 59 60 62 77 85 85 84 86 92 92 90 88 81 68 77 72 89 90 88 84 93 92 96 88
68 89 77 62 62 62 58 56 58 63 64 65 59 63 54 51 45 44 48 47 43 41 45 50 51 50 50 50 50 50 49 47 47 46 49 54 62 67 90 92 94 96 98
70 68 69 57 59 60 60 59 52 48 47 44 44 61 98 41 42 44 43 45 44 43 46 46 48 48 48 48 48 44 43 42 42 43 43 44 47 45 54 58 73 68 86
47 54 49 43 46 47 46 47 47 45 44 41 38 46 76 33 33 35 40 39 36 42 39 46 41 41 43 46 49 44 43 44 42 43 44 45 46 44 44 44 45 46 52
33 33 36 37 37 48 37 34 33 33 33 35 35 33 33 33 34 34 34 34 36 37 38 43 44 41 39 45 45 49 51 46 45 47 48 46 46 46 45 45 45 45 44
33 32 34 34 34 32 32 33 31 42 32 30 30 31 31 31 31 33 34 34 36 35 36 39 38 37 40 41 37 38 38 40 41 42 48 49 49 50 47 48 45 46 46
32 33 33 34 34 33 33 31 32 32 33 33 32 32 31 32 33 33 33 34 35 36 36 36 35 37 39 41 41 40 50 76 68 67 49 50 55 61 57 53 48 48 49
35 35 35 35 35 36 36 35 35 35 34 33 33 34 33 33 32 32 33 33 33 32 33 33 34 38 39 39 40 54 76 84 71 92 69 60 63 58 54 61 61 61 57
Wind_Speed
13 13 11 10 11 11 10 9 8 8 9 9 8 7 7 7 5 4 2 3 3 3 3 1 1 1 2 2 3 2 2 3 6 4 3 4 5 5 6 7 6 5 3
13 13 13 12 12 12 11 11 10 11 11 10 9 7 7 5 5 6 5 4 4 5 4 3 3 2 1 1 3 4 5 4 6 6 5 4 4 5 6 6 5 4 4
13 13 13 13 13 13 11 9 9 10 10 10 10 9 7 6 6 5 4 4 5 4 3 3 2 2 2 3 3 4 3 4 4 5 6 4 4 4 5 3 4 3 4
13 13 13 13 13 12 9 8 9 9 10 10 10 9 9 7 6 5 5 5 4 3 3 3 3 3 4 3 3 2 2 4 3 5 5 5 4 3 4 4 3 3 4
14 14 13 12 10 9 8 9 9 8 9 10 9 9 9 8 7 7 6 5 4 4 4 4 3 1 4 4 4 2 4 4 4 4 4 4 4 4 4 4 5 5 3
12 11 8 8 9 8 6 5 6 8 9 9 11 11 10 8 9 9 7 6 6 5 5 5 5 4 3 6 6 3 5 5 5 5 4 4 5 5 2 5 5 6 4
6 8 10 11 11 7 7 8 7 10 8 11 11 10 10 9 9 11 11 7 6 5 5 5 6 5 5 5 7 4 4 3 5 5 6 5 6 5 5 6 4 5 6
10 10 9 6 7 13 14 14 13 14 10 10 11 11 10 9 9 11 12 7 5 5 6 6 6 6 6 6 6 5 4 4 4 5 6 6 6 6 7 6 7 7 8
9 8 4 1 7 9 10 12 10 13 13 7 7 11 11 8 11 12 11 8 7 6 6 6 6 5 4 7 7 6 5 6 4 6 8 9 10 9 9 7 7 6 6
3 2 4 7 11 13 12 14 14 14 14 9 7 9 9 6 11 12 12 6 6 5 5 6 7 6 5 6 7 5 5 5 6 7 6 7 9 9 10 10 8 8 6
2 3 4 7 10 11 12 12 13 14 10 9 9 5 4 4 4 11 11 7 4 4 3 4 3 4 4 6 7 4 4 6 6 7 7 6 6 6 6 7 9 9 9
3 3 5 6 5 6 10 11 13 11 12 10 7 6 2 5 6 9 11 9 6 5 4 3 3 6 6 8 7 4 5 6 6 6 7 7 5 4 3 5 6 8 9
4 5 5 6 8 10 11 9 4 10 8 8 7 7 1 3 3 6 8 7 7 7 5 3 4 4 4 6 8 6 7 6 5 6 6 6 6 5 6 6 5 5 8
0 3 5 5 6 9 8 9 8 10 9 7 6 7 4 4 2 3 3 5 8 7 6 4 2 2 4 5 3 5 5 6 6 7 7 6 5 6 6 5 6 5 5
3 6 6 5 4 6 7 8 7 7 7 8 6 5 6 6 3 2 4 4 4 4 3 4 4 5 5 5 4 4 5 5 6 7 7 8 7 6 7 7 7 6 7
9 6 5 4 4 4 4 6 17 11 12 12 10 3 3 7 2 2 4 5 3 8 2 3 3 3 4 4 4 4 5 5 6 6 7 7 8 8 8 7 8 9 10
7 4 3 3 2 4 3 4 6 10 16 14 13 12 13 6 8 10 10 10 8 2 1 1 1 0 1 1 3 3 3 4 5 6 7 7 7 8 8 9 9 9 10
4 4 4 2 3 3 4 5 4 4 6 7 12 11 12 11 10 8 3 5 4 6 5 4 4 3 3 3 3 3 3 4 4 4 3 4 5 6 7 7 10 12 11
5 5 5 6 7 7 6 7 6 6 6 5 4 5 7 7 9 10 8 7 6 6 5 4 3 2 2 2 1 2 2 3 4 4 4 4 5 5 5 5 6 8 9
7 9 7 6 6 6 6 6 7 6 7 6 6 6 5 5 7 7 7 6 6 5 5 4 4 3 3 3 3 3 2 3 3 3 3 4 4 4 4 4 4 5 5
5 5 8 7 7 6 6 6 6 6 5 5 6 6 6 6 6 5 4 4 4 3 3 3 2 2 1 1 2 2 3 4 4 4 5 5 5 5 4 4 4 4 4
7 5 6 7 7 7 7 6 6 6 5 4 4 4 4 3 4 3 1 2 2 2 3 3 4 3 4 4 5 6 6 6 6 5 6 5 6 6 5 5 5 5 4
7 7 8 7 7 6 6 6 6 5 5 4 4 3 3 4 4 4 4 4 4 5 5 5 6 7 6 6 7 7 9 9 8 7 8 8 7 7 7 7 7 6 6
7 7 7 6 5 5 5 5 5 5 6 6 5 5 5 6 6 7 6 6 6 7 7 6 7 9 9 9 9 9 8 8 8 9 12 10 10 9 9 9 8 8 8
6 6 7 6 6 5 4 4 3 3 4 4 5 5 5 5 5 5 5 5 6 6 7 7 7 9 11 12 12 14 12 10 12 11 10 12 12 13 11 10 11 10 11
5 5 4 3 2 2 3 4 5 5 5 6 6 6 7 7 8 8 8 8 9 9 10 9 11 15 16 14 15 14 11 12 12 13 12 10 11 11 12 14 17 11 14
Wind_Direction
214 214 210 208 206 208 206 197 193 180 176 176 180 174 175 173 169 178 179 166 176 164 147 147 139 275 348 347 324 308 270 271 274 284 302 327 317 340 342 342 314 293 276
214 208 206 204 204 206 207 199 189 179 175 177 180 185 186 182 185 184 191 176 192 179 178 189 169 187 247 5 306 319 329 332 320 317 358 330 310 328 338 329 336 318 295
205 203 203 204 202 209 214 207 191 179 181 180 180 184 194 198 192 189 191 182 191 197 193 220 238 252 285 329 338 343 348 331 326 310 302 300 311 330 327 320 327 336 286
207 206 204 203 204 208 204 202 196 195 183 188 191 193 184 191 206 200 194 201 205 199 212 229 234 271 295 292 288 316 344 322 322 293 300 303 297 326 305 320 303 330 315
201 202 203 198 194 193 186 183 178 197 209 190 192 193 193 188 200 198 195 200 220 237 248 241 214 282 283 268 281 318 301 297 304 307 298 298 297 310 329 340 309 317 275
200 201 188 167 158 143 138 160 197 205 206 208 192 195 196 206 159 198 212 207 214 237 253 249 251 240 220 190 209 241 324 305 290 287 290 301 301 298 299 326 322 327 311
163 145 135 133 111 119 139 167 211 225 216 210 202 201 198 209 168 185 194 213 217 231 244 244 243 232 226 226 187 188 204 242 279 286 286 293 304 326 326 304 333 313 301
135 126 124 123 157 165 199 206 178 198 206 206 201 200 207 198 169 178 177 193 209 224 240 238 242 262 256 260 240 246 264 299 290 267 277 285 283 306 300 301 310 304 270
134 138 134 337 289 276 258 241 212 191 202 187 210 200 200 191 171 167 179 191 200 222 235 240 239 269 313 239 236 251 275 299 187 238 267 278 271 263 260 278 264 274 286
57 334 310 291 292 286 272 235 211 200 193 170 176 224 171 194 170 172 188 201 208 222 222 241 210 272 331 226 229 249 280 319 321 313 290 249 234 249 220 237 264 270 271
339 300 306 328 320 309 291 251 220 201 175 169 177 178 160 216 182 166 185 208 216 220 214 219 198 174 249 210 231 241 291 325 306 292 292 288 272 249 250 234 242 250 257
52 63 45 18 349 325 309 258 218 187 178 165 175 132 155 154 221 181 178 214 196 224 220 200 172 174 180 175 201 234 260 281 276 282 292 294 288 287 291 304 289 252 254
91 68 62 37 21 19 6 11 203 183 161 134 150 111 118 57 249 180 151 220 222 228 236 203 152 182 210 213 229 247 252 260 276 275 274 283 287 296 295 271 252 250 245
354 11 4 23 9 27 25 38 54 68 69 59 68 74 47 274 268 241 198 211 230 229 237 221 199 282 286 303 281 224 244 259 268 275 278 276 279 260 256 257 268 256 261
16 37 49 48 31 59 46 25 51 76 110 133 163 167 195 212 199 165 195 198 209 208 186 209 218 228 242 244 248 262 271 270 266 266 263 266 264 266 251 245 244 253 255
71 58 37 52 60 22 60 83 45 54 67 64 58 43 82 64 71 227 228 194 154 138 170 212 227 260 273 295 296 298 288 287 294 291 279 276 276 273 270 254 242 245 252
102 119 113 86 41 122 116 84 80 65 67 49 51 57 69 100 69 59 59 65 81 120 34 73 110 182 303 260 292 304 316 313 312 320 325 312 298 292 289 274 261 250 248
91 82 95 74 68 68 65 95 106 93 77 69 45 55 49 56 58 74 155 156 86 57 54 39 30 31 34 6 14 6 346 342 319 328 344 334 344 340 318 312 303 283 270
58 60 64 63 55 65 74 83 86 89 93 97 108 82 77 73 75 60 42 52 46 46 55 54 67 71 68 55 24 15 4 353 344 349 349 351 356 336 350 340 339 339 331
71 50 51 79 82 78 77 79 77 65 65 57 62 52 50 44 44 43 43 41 42 36 28 32 27 10 15 5 9 11 0 8 350 348 349 342 1 347 335 334 331 335 335
58 48 41 60 59 61 66 67 73 73 73 66 68 53 3 40 39 39 43 50 41 42 31 24 10 353 326 330 313 319 324 332 328 322 330 339 332 335 322 329 312 325 329
72 55 53 60 63 62 64 62 61 60 57 60 76 81 328 19 16 15 327 270 310 276 279 276 290 295 289 286 287 290 295 296 303 305 304 307 310 314 315 308 306 305 309
75 77 76 70 77 88 79 69 63 60 60 50 38 22 355 348 341 332 334 316 309 305 306 290 292 289 280 275 284 285 284 289 297 299 294 293 291 295 305 304 308 310 318
69 71 74 73 65 72 66 63 72 56 24 21 6 356 348 338 328 323 310 302 299 301 296 287 286 293 293 280 280 277 274 276 285 282 280 277 276 269 271 284 282 291 291
74 73 69 65 59 54 54 35 19 354 338 327 328 320 310 303 302 300 294 284 281 280 275 272 276 276 270 275 276 277 274 257 259 274 276 265 261 265 259 264 275 280 279
81 80 78 69 50 4 341 337 336 330 329 330 327 322 315 308 305 303 300 295 293 296 301 297 298 294 288 282 283 281 263 246 247 249 258 254 243 245 250 247 248 246 255